| time (UTC) | temp F | wind direction | speed knots | gust knots | rain 1hr in | rain 24hr in | rain mn in | humidity % | barometer mb |
| 20260502194825 | 54 | 294 | 0.0 | 0.0 | 0.00 | 0.00 | 0.00 | 74 | 1000.0 |
| 20260502193327 | 54 | 294 | 0.0 | 0.0 | 0.00 | 0.01 | 0.00 | 73 | 999.7 |
| 20260502191824 | 55 | 294 | 0.0 | 0.0 | 0.00 | 0.01 | 0.00 | 71 | 1000.0 |
| 20260502190325 | 55 | 294 | 0.0 | 0.0 | 0.00 | 0.01 | 0.00 | 70 | 1000.0 |
| 20260502184825 | 56 | 294 | 0.0 | 0.0 | 0.00 | 0.01 | 0.00 | 69 | 1000.0 |
| 20260502183325 | 56 | 294 | 0.0 | 0.0 | 0.00 | 0.02 | 0.00 | 68 | 1000.3 |
| 20260502181824 | 57 | 308 | 1.7 | 1.7 | 0.00 | 0.03 | 0.00 | 68 | 1000.3 |
| 20260502180325 | 57 | 313 | 0.0 | 0.0 | 0.00 | 0.03 | 0.00 | 66 | 1000.3 |
| 20260502170326 | 58 | 302 | 0.0 | 0.9 | 0.00 | 0.03 | 0.00 | 64 | 1000.7 |
| 20260502163326 | 59 | 9 | 0.0 | 0.9 | 0.00 | 0.03 | 0.00 | 65 | 1001.0 |
| 20260502161825 | 60 | 303 | 1.7 | 1.7 | 0.00 | 0.03 | 0.00 | 61 | 1000.7 |
| 20260502160326 | 59 | 313 | 0.0 | 0.0 | 0.00 | 0.03 | 0.00 | 62 | 1000.7 |
| 20260502151826 | 59 | 312 | 0.0 | 0.9 | 0.00 | 0.03 | 0.00 | 63 | 1001.7 |
| 20260502150325 | 60 | 332 | 1.7 | 1.7 | 0.00 | 0.03 | 0.00 | 60 | 1001.7 |
| 20260502130327 | 56 | 292 | 0.9 | 1.7 | 0.00 | 0.03 | 0.00 | 72 | 1002.7 |
| 20260502123326 | 57 | 266 | 0.9 | 0.9 | 0.00 | 0.03 | 0.00 | 71 | 1003.0 |
| 20260502121826 | 56 | 327 | 0.9 | 0.9 | 0.00 | 0.03 | 0.00 | 73 | 1003.4 |
| 20260502120326 | 56 | 244 | 1.7 | 1.7 | 0.00 | 0.03 | 0.00 | 72 | 1003.4 |
| 20260502114827 | 56 | 287 | 0.9 | 0.9 | 0.00 | 0.03 | 0.00 | 75 | 1003.7 |
| 20260502113325 | 56 | 194 | 0.0 | 0.9 | 0.00 | 0.03 | 0.00 | 76 | 1003.4 |
| 20260502111825 | 55 | 312 | 0.0 | 0.9 | 0.00 | 0.03 | 0.00 | 77 | 1003.4 |
| 20260502110325 | 55 | 327 | 3.5 | 5.2 | 0.00 | 0.03 | 0.00 | 80 | 1003.4 |
| 20260502104826 | 55 | 226 | 1.7 | 2.6 | 0.00 | 0.03 | 0.00 | 79 | 1003.7 |
| 20260502103325 | 54 | 252 | 1.7 | 1.7 | 0.00 | 0.03 | 0.00 | 82 | 1003.7 |
| 20260502101826 | 53 | 218 | 0.9 | 1.7 | 0.00 | 0.03 | 0.00 | 83 | 1003.7 |
| 20260502100325 | 52 | 229 | 1.7 | 1.7 | 0.00 | 0.03 | 0.00 | 86 | 1003.7 |
| 20260502090325 | 52 | 79 | 0.0 | 0.0 | 0.00 | 0.03 | 0.00 | 90 | 1004.1 |
| 20260502070326 | 50 | 265 | 0.0 | 0.0 | 0.00 | 0.03 | 0.00 | 95 | 1003.7 |
| 20260502064826 | 50 | 231 | 0.0 | 0.0 | 0.00 | 0.03 | 0.00 | 95 | 1004.1 |
| 20260502063325 | 50 | 232 | 0.9 | 0.9 | 0.00 | 0.03 | 0.00 | 95 | 1003.7 |
| 20260502061825 | 50 | 323 | 0.0 | 0.0 | 0.00 | 0.03 | 0.00 | 95 | 1003.7 |
| 20260502060326 | 50 | 242 | 0.0 | 0.0 | 0.00 | 0.03 | 0.00 | 95 | 1003.7 |
| 20260502054825 | 50 | 287 | 0.0 | 0.9 | 0.00 | 0.03 | 0.00 | 96 | 1003.7 |
| 20260502053325 | 50 | 294 | 0.0 | 0.0 | 0.00 | 0.03 | 0.00 | 96 | 1003.7 |
| 20260502051825 | 49 | 224 | 1.7 | 1.7 | 0.00 | 0.03 | 0.00 | 96 | 1003.7 |
| 20260502050325 | 49 | 216 | 0.9 | 0.9 | 0.00 | 0.03 | 0.00 | 96 | 1003.7 |
| 20260502044825 | 49 | 219 | 1.7 | 1.7 | 0.00 | 0.03 | 0.00 | 96 | 1003.7 |
| 20260502043325 | 50 | 267 | 0.9 | 1.7 | 0.00 | 0.03 | 0.00 | 97 | 1003.7 |
| 20260502041825 | 50 | 170 | 1.7 | 1.7 | 0.00 | 0.03 | 0.00 | 97 | 1003.7 |
| 20260502040326 | 50 | 302 | 0.0 | 0.0 | 0.00 | 0.03 | 0.00 | 97 | 1003.7 |
| 20260502034825 | 50 | 255 | 0.9 | 1.7 | 0.00 | 0.03 | 0.00 | 97 | 1003.7 |
| 20260502033326 | 50 | 274 | 0.0 | 0.0 | 0.00 | 0.03 | 0.00 | 97 | 1004.1 |
| 20260502031825 | 50 | 304 | 0.0 | 0.0 | 0.00 | 0.03 | 0.00 | 97 | 1003.7 |
| 20260502030325 | 49 | 323 | 0.0 | 0.0 | 0.00 | 0.03 | 0.00 | 96 | 1004.1 |
| 20260502024826 | 49 | 323 | 0.0 | 0.0 | 0.00 | 0.03 | 0.00 | 96 | 1004.1 |
| 20260502023325 | 50 | 317 | 0.0 | 0.0 | 0.00 | 0.03 | 0.00 | 96 | 1004.4 |
| 20260502021825 | 49 | 307 | 0.9 | 0.9 | 0.00 | 0.03 | 0.00 | 96 | 1004.4 |
| 20260502020325 | 49 | 317 | 0.9 | 0.9 | 0.00 | 0.03 | 0.00 | 97 | 1004.7 |
| 20260502014825 | 50 | 321 | 0.0 | 0.0 | 0.00 | 0.03 | 0.00 | 97 | 1005.1 |
| 20260502013325 | 50 | 311 | 0.9 | 0.9 | 0.00 | 0.03 | 0.00 | 97 | 1005.1 |
| 20260502011826 | 50 | 296 | 1.7 | 1.7 | 0.00 | 0.03 | 0.00 | 97 | 1005.1 |
| 20260502010326 | 50 | 303 | 0.9 | 1.7 | 0.00 | 0.03 | 0.00 | 97 | 1005.1 |
| 20260502004825 | 50 | 252 | 0.0 | 0.0 | 0.00 | 0.03 | 0.00 | 97 | 1005.1 |
| 20260502003325 | 50 | 302 | 0.0 | 0.0 | 0.00 | 0.03 | 0.00 | 97 | 1005.4 |
| 20260502001825 | 50 | 292 | 0.0 | 0.0 | 0.00 | 0.03 | 0.00 | 97 | 1005.4 |
| 20260502000326 | 50 | 300 | 0.9 | 0.9 | 0.00 | 0.03 | 0.00 | 97 | 1005.4 |
| 20260501234826 | 50 | 289 | 1.7 | 3.5 | 0.00 | 0.03 | 0.00 | 97 | 1005.4 |
| 20260501233324 | 50 | 323 | 0.0 | 0.0 | 0.00 | 0.03 | 0.00 | 97 | 1005.4 |
| 20260501231826 | 50 | 335 | 0.0 | 0.0 | 0.00 | 0.03 | 0.00 | 96 | 1005.4 |
| 20260501230325 | 51 | 335 | 0.0 | 0.0 | 0.00 | 0.03 | 0.00 | 96 | 1005.8 |
| 20260501224825 | 51 | 335 | 0.0 | 0.0 | 0.00 | 0.03 | 0.02 | 96 | 1005.8 |
| 20260501223326 | 51 | 334 | 0.0 | 0.0 | 0.00 | 0.03 | 0.02 | 96 | 1005.4 |
| 20260501221826 | 51 | 335 | 0.0 | 0.0 | 0.00 | 0.03 | 0.02 | 96 | 1005.4 |
| 20260501220325 | 51 | 289 | 0.0 | 0.0 | 0.00 | 0.03 | 0.02 | 96 | 1005.4 |
| 20260501214825 | 51 | 306 | 0.0 | 0.9 | 0.00 | 0.03 | 0.02 | 95 | 1005.8 |
| 20260501213326 | 52 | 290 | 0.0 | 0.0 | 0.00 | 0.03 | 0.02 | 95 | 1005.8 |
| 20260501211826 | 52 | 280 | 0.0 | 0.0 | 0.00 | 0.03 | 0.02 | 95 | 1005.8 |
| 20260501210325 | 52 | 320 | 0.0 | 0.0 | 0.00 | 0.03 | 0.02 | 95 | 1005.8 |
| 20260501204825 | 52 | 318 | 0.9 | 0.9 | 0.00 | 0.03 | 0.02 | 95 | 1005.8 |
| 20260501203326 | 52 | 314 | 0.0 | 0.0 | 0.00 | 0.03 | 0.02 | 95 | 1006.1 |
| 20260501201825 | 52 | 307 | 0.0 | 0.0 | 0.00 | 0.03 | 0.02 | 94 | 1006.1 |
| 20260501200326 | 52 | 308 | 1.7 | 2.6 | 0.00 | 0.03 | 0.02 | 94 | 1006.1 |